Weather History for Pompano Beach, FL

Change the Weather History Date:

Sunday, August 25, 2013

  Actual Average Record
Temperature  
Mean Temperature 42 °F -  
Max Temperature 84 °F 92 °F 96 °F (1982)
Min Temperature 0 °F 74 °F 0 °F (2013)
Degree Days  
Heating Degree Days 23    
Moisture  
Dew Point 70 °F    
Average Humidity 81    
Maximum Humidity 100    
Minimum Humidity 69    
Precipitation  
Precipitation 0.02 in - - ()
Sea Level Pressure  
Sea Level Pressure 30.10 in    
Wind  
Wind Speed 7 mph (NE)    
Max Wind Speed 10 mph    
Max Gust Speed -    
Visibility 10 miles    
Events Rain , Thunderstorm    
Averages and records for this station are not official NWS values.
T = Trace of Precipitation, MM = Missing Value Source: NWS Daily Summary

Daily Weather History Graph

Daily Weather History Graph

Search for Another Location

Airport:

Trip Planner

Search our weather history database for the weather conditions in past years. The results will help you decide how hot, cold, wet, or windy it might be!

Date:

Astronomy

Aug. 25, 2013 Rise Set
Actual Time 6:57 AM EDT 7:46 PM EDT
Civil Twilight 6:33 AM EDT 8:10 PM EDT
Nautical Twilight 6:05 AM EDT 8:38 PM EDT
Astronomical Twilight 5:37 AM EDT 9:06 PM EDT
Moon 10:53 PM EDT (8/25) 11:23 AM EDT (8/25)
Length of Visible Light 13h 36m
Length of Day
12h 49m
Waning Gibbous, 76% of the Moon is Illuminated
Aug 25
Waning Gibbous
Aug 28
Last Quarter
Sep 5
New
Sep 12
First Quarter
Sep 19
Full

Hourly Weather History & Observations

Time (EDT) Temp. Windchill Dew Point Humidity Pressure Visibility Wind Dir Wind Speed Gust Speed Precip Events Conditions
12:53 AM -0.0 °F -13.0 °F -0.0 °F 100% 30.07 in 10.0 mi ESE 6.9 mph - N/A   Unknown
1:53 AM 82.0 °F - 75.0 °F 79% 30.05 in 10.0 mi SE 8.1 mph - N/A   Unknown
2:53 AM 41.0 °F 39.0 °F 41.0 °F 100% 30.04 in 10.0 mi ESE 3.5 mph - N/A   Unknown
3:53 AM 82.0 °F - 75.0 °F 79% 30.04 in 10.0 mi Calm Calm - N/A   Unknown
4:53 AM 79.0 °F - 75.9 °F 90% 30.06 in 10.0 mi NNW 5.8 mph - N/A   Unknown
5:53 AM 79.0 °F - 77.0 °F 94% 30.08 in 10.0 mi NNW 6.9 mph - 0.00 in   Unknown
6:29 AM 78.8 °F - 77.0 °F 94% 30.08 in 10.0 mi North 4.6 mph - N/A Thunderstorm Unknown
6:53 AM 79.0 °F - 77.0 °F 94% 30.09 in 10.0 mi NNW 5.8 mph - N/A Thunderstorm Unknown
7:04 AM 78.8 °F - 75.2 °F 89% 30.09 in 10.0 mi NNW 8.1 mph - N/A   Unknown
7:53 AM 77.0 °F - 72.0 °F 84% 30.11 in 10.0 mi North 5.8 mph - N/A   Mostly Cloudy
8:53 AM 79.0 °F - 73.9 °F 84% 30.12 in 10.0 mi WNW 10.4 mph - N/A   Mostly Cloudy
9:53 AM 79.0 °F - 73.9 °F 84% 30.15 in 10.0 mi North 8.1 mph - N/A   Mostly Cloudy
10:53 AM 80.1 °F - 73.9 °F 81% 30.16 in 10.0 mi NE 5.8 mph - 0.00 in   Mostly Cloudy
11:53 AM 80.1 °F - 75.0 °F 85% 30.16 in 10.0 mi North 5.8 mph - 0.02 in Rain Light Rain
12:53 PM 82.0 °F - 73.9 °F 76% 30.14 in 10.0 mi ENE 8.1 mph - 0.00 in   Mostly Cloudy
1:53 PM 84.0 °F - 73.9 °F 72% 30.12 in 10.0 mi ENE 9.2 mph - N/A   Mostly Cloudy
2:53 PM 82.9 °F - 75.0 °F 77% 30.09 in 10.0 mi East 9.2 mph - 0.00 in Rain Light Rain
3:53 PM 84.0 °F - 73.9 °F 72% 30.06 in 10.0 mi East 8.1 mph - 0.00 in   Partly Cloudy
4:53 PM 84.0 °F - 73.0 °F 69% 30.06 in 10.0 mi East 8.1 mph - N/A   Unknown
5:53 PM 84.0 °F - 73.0 °F 69% 30.07 in 10.0 mi East 9.2 mph - N/A   Partly Cloudy
6:53 PM 82.9 °F - 72.0 °F 69% 30.08 in 10.0 mi ENE 6.9 mph - N/A   Unknown
7:53 PM 82.0 °F - 73.0 °F 74% 30.09 in 10.0 mi ENE 5.8 mph - N/A   Unknown
8:53 PM 82.0 °F - 73.0 °F 74% 30.11 in 10.0 mi NE 8.1 mph - N/A   Unknown
9:53 PM 82.0 °F - 73.0 °F 74% 30.12 in 10.0 mi ENE 6.9 mph - N/A   Unknown
10:53 PM 82.0 °F - 73.9 °F 76% 30.13 in 10.0 mi NE 6.9 mph - N/A   Unknown
11:53 PM 82.0 °F - 73.0 °F 74% 30.14 in 10.0 mi ENE 8.1 mph - N/A   Unknown